LEMUR-2-JOBANPUTRA (41991 NORAD) Tracking and Keplerian Element Data

This shows tracking and keplerian element data for the satellite.

Feedback or suggestion? Click here.




ElementValue
Catalog41991
NameLEMUR-2-JOBANPUTRA
Epoch Orbit35374
Epoch Day176.1082445
Epoch Year2023
RAAN241.2984
Inclination97.167
Eccentricity0.0007125
Argument of Perigee235.8708
Mean Anonmoly124.1891
Mean Motion15.91586262
Decay Rate0.00707602
L11 41991U 17008AV 23176.10824450 .00707602 20437-3 21985-2 0 9991
L22 41991 97.1670 241.2984 0007125 235.8708 124.1891 15.91586262353747



Live tracking and technical data element details for LEMUR-2-JOBANPUTRA (NORAD 41991). LEMUR-2-JOBANPUTRA can be tracked NOW for your location showing map with azimuth and elevation plus other details from your city location.







IsCatalogInMostPopularTable: catalog: 41991, numindb: 501
Update: records affected: 1



GetName: 41991 LEMUR-2-JOBANPUTRA

Hit Count: updated at: Sat, 24 May 2025 16:46:15 GMT